Regional Weather Roundup
Issued by NWS

Home | Current Version | Previous Version | Graphics & Text | Print | Product List | Glossary On
Versions: 1 2 3 4 5 6 7 8 9 10 11 12 13 14 15 16 17 18 19 20 21 22 23 24 25 26 27 28 29 30 31 32 33 34 35 36 37 38 39 40 41 42 43 44 45 46 47 48 49 50
006
ASUS44 KMEG 221210
RWRTN
TENNESSEE HOURLY STATE WEATHER ROUNDUP
NATIONAL WEATHER SERVICE MEMPHIS TN
600 AM CST WED FEB 22 2017

TNZ002-004-019-021-049-052-054-088>092-221300-
WEST TENNESSEE

CITY           SKY/WX    TMP DP  RH WIND       PRES   REMARKS
MEMPHIS INTL   CLOUDY    60  58  92 N7        29.89R
NWS MEMPHIS      N/A     59 N/A N/A MISG        N/A
JACKSON        CLOUDY    57  57 100 CALM      29.90S
UNION CITY     CLOUDY   N/A N/A N/A CALM      29.89F VSB 1/4
PARIS          CLOUDY    52  52 100 CALM      29.92S VSB 1/4
HUNTINGDON     PTCLDY    55  55 100 NE5       29.90F
$$

TNZ008-025-027-028-033-062-065-066-221300-
NORTH MIDDLE TENNESSEE

CITY           SKY/WX    TMP DP  RH WIND       PRES   REMARKS
NASHVILLE      LGT RAIN  57  54  89 CALM      29.91R
PORTLAND       CLOUDY    55  55 100 NE6       29.93S
CLARKSVILLE    FOG       54  53  97 S5        29.90F VSB 1/2
SMYRNA         LGT RAIN  54  54 100 CALM      29.92R FOG
COOKEVILLE     CLOUDY    55  54  94 CALM      29.92R FOG
GALLATIN       CLOUDY    57  55  94 N7        29.94S
CROSSVILLE     CLOUDY    54  52  93 E3        29.95S
$$

TNZ061-075-076-078-094-096-097-221300-
SOUTH MIDDLE TENNESSEE

CITY           SKY/WX    TMP DP  RH WIND       PRES   REMARKS
FAYETTEVILLE   CLOUDY    57  57 100 N6        29.90R
TULLAHOMA      CLOUDY    57  55  94 CALM      29.91S
WINCHESTER     CLOUDY    57  55  94 E5        29.90S
MCMINNVILLE    CLOUDY    57  57 100 NE3       29.92R
COLUMBIA       PTCLDY   N/A N/A N/A CALM      29.88S
SHELBYVILLE    CLOUDY    55  55 100 CALM      29.91S
$$

TNZ017-018-042-046-047-221300-
NORTHEAST TENNESSEE

CITY           SKY/WX    TMP DP  RH WIND       PRES   REMARKS
TRI CITIES     LGT RAIN  52  47  83 NE5       29.99R
ELIZABETHTON   LGT RAIN  52  50  93 CALM      29.99R
$$

TNZ012-013-036-069-073-074-221300-
CENTRAL EAST TENNESSEE

CITY           SKY/WX    TMP DP  RH WIND       PRES   REMARKS
KNOXVILLE      LGT RAIN  55  51  86 CALM      29.93S
OAK RIDGE      LGT RAIN  55  52  89 CALM      29.96R
GATLINBURG     CLOUDY    52  48  87 CALM      29.95R
MORRISTOWN     CLOUDY    55  50  82 E6        29.95S
JACKSBORO      CLOUDY    54  54 100 CALM      29.99S FOG
$$

TNZ083-085-099-221300-
SOUTHEAST TENNESSEE

CITY           SKY/WX    TMP DP  RH WIND       PRES   REMARKS
CHATTANOOGA    DRIZZLE   56  54  93 N6        29.91S FOG
$$

SKY/WX REPORTED AS FAIR MEANS FEW OR NO CLOUDS BELOW
12 THOUSAND FEET.





USA.gov is the U.S. government's official web portal to all federal, state and local government web resources and services.